Regional Weather Roundup
Issued by NWS Austin/San Antonio, TX

Home | Current Version | Previous Version | Text Only | Print | Product List | Glossary On
Versions: 1 2 3 4 5 6 7 8 9 10 11 12 13 14 15 16 17 18 19 20 21 22 23 24 25 26 27 28 29 30 31 32 33 34 35 36 37 38 39 40 41 42 43 44 45 46 47 48 49 50
000
ASUS44 KEWX 261002
RWREWX
SOUTH TEXAS REGIONAL WEATHER ROUNDUP
NATIONAL WEATHER SERVICE AUSTIN/SAN ANTONIO TX
500 AM CDT TUE MAY 26 2020

NOTE: "FAIR" INDICATED FEW OR NO CLOUDS BELOW 12,000 FEET WITH NO
SIGNIFICANT WEATHER AND/OR OBSTRUCTIONS TO VISIBILITY.

* - THESE STATIONS ARE NOT NWS OR FAA STATIONS...AND ARE NOT SUBJECT
    TO NWS AND FAA QUALITY CONTROL.

TXZ171-172-183>190-261100-
TEXAS HILL COUNTRY AND EDWARDS PLATEAU

CITY           SKY/WX    TMP DP  RH WIND       PRES   REMARKS
JUNCTION       CLOUDY    66  63  90 N5        29.98R
*LLANO         FAIR      66  64  94 CALM      29.98R
BURNET         CLOUDY    65  61  87 S3        29.96R
*HORSESHOE BAY CLOUDY    66  63  88 CALM      29.95R
*LAGO VISTA    FAIR      63  62  96 E3        29.95R
*KERRVILLE     CLOUDY    65  63  92 CALM      29.95R
*FREDERICKSBRG CLOUDY    66  64  96 E9        29.96R
*ROCKSPRINGS   NOT AVBL
*BOERNE        FAIR      61  61 100 CALM      29.94S
HONDO          FAIR      64  62  93 CALM      29.92R FOG
*UVALDE        NOT AVBL
DEL RIO        FAIR      69  66  90 NW6       29.92R
*LAUGHLIN AFB  CLOUDY    68  66  94 N9        29.92S
*SPOFFORD      NOT AVBL
*EAGLE PASS    CLOUDY    70  63  78 E5        29.93R
CARRIZO SPRGS  MOCLDY    64  64 100 CALM      29.92R
$$

TXZ173-191>194-202-209-217>225-228-261100-
CENTRAL AND SOUTH CENTRAL TEXAS

CITY           SKY/WX    TMP DP  RH WIND       PRES   REMARKS
GEORGETOWN     MOCLDY    66  63  90 NW3       29.95S
*TAYLOR        FAIR      64  63  97 CALM      29.91F FOG
AUSTIN/BERGSTM FAIR      66  64  93 E3        29.90F
AUSTIN/MABRY   FAIR      67  63  87 CALM      29.92F
*PFLUGERVILLE  MOCLDY    66  66 100 CALM      29.92F
SAN MARCOS     FAIR      66  66 100 NE9       29.92F
NEW BRAUNFELS  FAIR      68  64  87 NE7       29.89F
*RANDOLPH AFB  FAIR      65  64  99 N5        29.90S
*SEGUIN        FAIR      66  65  97 NE5       29.94F
SAN ANTONIO    MOCLDY    66  63  90 NW3       29.91F
STINSON FIELD  FAIR      66  66 100 CALM      29.88F
*KELLY FIELD   FAIR      66  66 100 CALM      29.88F
*PLEASANTON    FAIR      69  66  93 CALM      29.91R
*KENEDY        FAIR      68  66  93 N6        29.89R
*LA GRANGE     FAIR      68  68 100 CALM      29.88S
*GIDDINGS      FAIR      64  63  94 CALM      29.91F
*GONZALES      FAIR      68  68  99 NE3       29.89F
$$

TXZ163>164-176>182-195>201-210>213-226-227-235-261100-
SOUTHEAST TEXAS

CITY           SKY/WX    TMP DP  RH WIND       PRES   REMARKS
COLLEGE STN    MOCLDY    67  66  97 N6        29.88F
*BRYAN         MOCLDY    67  67 100 CALM      29.91F
*CALDWELL      FAIR      64 N/A N/A N6        29.90F
*CROCKETT      NOT AVBL
*BRENHAM       FAIR      66  66  99 N5        29.90F
HUNTSVILLE     FAIR      67  65  93 W5        29.90R
CONROE         MOCLDY    67  65  93 NW5       29.87F
HOUSTON BUSH   LGT RAIN  68  66  93 SE6       29.88F
HOUSTON HOBBY  LGT RAIN  71  65  81 CALM      29.91S
*HOUSTON SW AP DRIZZLE   66  66 100 CALM      29.93S
PEARLAND       LGT RAIN  70  65  84 CALM      29.93R
HOUSTON HOOKS  LGT RAIN  67  64  90 VRB5      29.86F
ELLINGTON FLD  NOT AVBL
SUGAR LAND     LGT RAIN  69  67  93 CALM      29.91S
*HOUSTON EXEC  LGT RAIN  68  68 100 S9        29.89F
*CLEVELAND MUN LGT RAIN  67  66  96 CALM      29.91F
*WHARTON       LGT RAIN  67  65  94 CALM      29.92F
*COLUMBUS      FAIR      69  62  77 NW8G17    29.88R
*EAGLE LAKE    LGT RAIN  69  67  93 SE16G22   29.80F
$$

TXZ214>216-236>238-261100-
THE UPPER TEXAS COAST

CITY           SKY/WX    TMP DP  RH WIND       PRES   REMARKS
*ORANGE        RAIN      70  67  90 NW8       29.93R
PORT ARTHUR    CLOUDY    67  66  97 NW12      29.90F
GALVESTON      LGT RAIN  72  67  84 NW20      29.92S
ANGLETON       LGT RAIN  68  66  93 NW5       29.93R
*BAY CITY      LGT RAIN  70  68  95 N3        29.94R
PALACIOS       HVY RAIN  69  67  93 VRB5      29.94R FOG
$$

TXZ229>234-239>247-261100-
TEXAS COASTAL BEND AND RIO GRANDE PLAINS

CITY           SKY/WX    TMP DP  RH WIND       PRES   REMARKS
VICTORIA       LGT RAIN  69  66  90 SE15      29.85F
*BEEVILLE      CLOUDY    69  69 100 SE12      29.85F
ROCKPORT       LGT RAIN  73  67  81 NE14      29.85F
*PORT ARANSAS  LGT RAIN  71  68  90 NE25G32   29.87F
*PORT LAVACA   NOT AVBL
*INGLESIDE     FAIR      70  69  98 E17G26    29.85F
CORPUS CHRISTI LGT RAIN  71  68  90 NE16      29.86R
CORPUS NAS     FAIR      73  32  22 NE28G37   29.84F
*ROBSTOWN      FAIR      69  67  92 NE9       29.86R
ALICE          MOCLDY    70  66  87 E9        29.86R
KINGSVILLE NAS FAIR      71  68  90 NE8       29.86S
COTULLA        CLOUDY    69  63  81 CALM      29.91R
LAREDO         MOCLDY    69  67  93 E14       29.88R
$$

TXZ248>255-261100-
DEEP SOUTH TEXAS

CITY           SKY/WX    TMP DP  RH WIND       PRES   REMARKS
BROWNSVILLE    LGT RAIN  79  75  87 NE9       29.80R
PORT ISABEL    RAIN      77  74  90 NE14      29.81R
HARLINGEN      LGT RAIN  77  75  93 NE16      29.81R
*HEBBRONVILLE  CLOUDY    68  66  94 NE13G20   29.89R
MCALLEN        HVY RAIN  73  70  90 N13G23    29.86R FOG
*WESLACO       TSTM      76  73  93 N17G25    29.81R
FALFURRIAS     NOT AVBL
EDINBURG       TSTM      74  72  91 N8        29.83F
*ZAPATA        NOT AVBL
$$

TXZ213>215-236>238-242>244-246-247-251-254-255-261100-
CMAN STATIONS

STATION/POSITION TIME  TEMP    WIND        PRES    WAVE
                       AIR SEA DIR/SP/G            HT/PER
                 (UTC) (F)     (DEG/KT/KT) (MB)    (FT/S)
SABINE PASS      0924   72 83  310/ 13/ 18 1014.2
NORTH JETTY/GLS  0924   72 81  330/ 20/ 25 1011.7
EAGLE POINT      0924   72 80  340/  9/ 14 1012.5
MORGANS POINT    0924   72 82  320/ 12/ 14 1013.0
PORT O`CONNOR    0924   72 80  360/ 23/ 26 1014.2
PORT ARANSAS     0900   71 80  350/ 26/ 31 1012.4
MALAQUITE BEACH  0924   72 89  360/ 31/ 35 1010.6
BAFFIN BAY       0924   73 81  360/ 19/ 25 1011.7
PORT ISABEL      0924   79 80   40/  7/  9 1010.8
$$




USA.gov is the U.S. government's official web portal to all federal, state and local government web resources and services.